Location: Mount Cross
(36.6390°N, 79.4878°W)
Time: 01:47:53
(UTC+00:00)

Vanguard 2 Rocket - Pass Details

Date: 28 March 2023
Orbit: 554 x 3314 km, 32.9° (Epoch: 08 June)

Event Time Altitude Azimuth Distance (km) Brightness Sun altitude
Rises 05:00:05 0° 278° (W) 4,779 10.7 -50.1°
Reaches altitude 10° 05:02:53 10° 272° (W) 4,104 10.3 -50.2°
Enters shadow 05:03:18 12° 271° (W) 4,013 10.2 -50.2°
